Home > Weather > Durrës > Past weeks

Flag for Albania Past Weather in Durrës, Albania — Yesterday and Last 2 Weeks

Now
90 °F

Passing clouds.


Feels Like: 90 °F
Forecast: 75 / 82 °F
Wind: 5 mph from Northwest

Location: Tirana Airport

Current Time: Jun 27, 2016 at 5:00:05 PM

Latest Report: Jun 27, 2016 at 4:20 PM


Visibility: N/A

Pressure: 29.89 "Hg

Humidity: 41%

Dew Point: 63 °F

Location of DurrësLocation

Past Weather in Durrës — Graph

°F

Durrës Temperature Yesterday

Maximum temperature yesterday: 93 °F (at 1:20 PM)
Minimum temperature yesterday: 70 °F (at 4:50 AM)
Average temperature yesterday: 81 °F

High & Low Weather Summary for the Past Weeks

 TemperatureHumidityPressure
High100 °F (Jun 23, 4:20 PM)100% (Jun 19, 3:20 AM)30.09 "Hg (Jun 19, 3:20 AM)
Low61 °F (Jun 13, 7:20 AM)20% (Jun 25, 3:20 PM)29.56 "Hg (Jun 13, 5:20 PM)
Average77 °F65%29.89 "Hg
* Reported Jun 12 3:20 PM — Jun 27 3:20 PM, Durrës, Weather by CustomWeather, © 2016

Note: Actual official high and low records may vary slightly from our data, if they occured in-between our weather recording intervals... More about our weather records

Advertising

Durrës Weather History for the Previous 24 Hours

Scroll right to see more
 ConditionsComfort  
Time TempWeatherWind HumidityBarometerVisibility
3:20 PM
Mon, Jun 27
90 °FScattered clouds.7 mph46%29.89 "HgN/A
2:50 PM90 °FScattered clouds.8 mph46%29.89 "HgN/A
2:20 PM90 °FPassing clouds.6 mph43%29.89 "HgN/A
1:50 PM90 °FPassing clouds.5 mph38%29.89 "HgN/A
1:20 PM88 °FPassing clouds.8 mph49%29.89 "HgN/A
12:50 PM88 °FPassing clouds.7 mph49%29.89 "HgN/A
12:20 PM90 °FSunny.5 mph49%29.89 "Hg10 mi
11:50 AM90 °FPassing clouds.5 mph46%29.89 "HgN/A
11:20 AM88 °FSunny.No wind43%29.89 "Hg10 mi
10:50 AM88 °FSunny.No wind43%29.89 "Hg10 mi
10:20 AM88 °FSunny.2 mph46%29.92 "Hg10 mi
9:50 AM86 °FSunny.No wind46%29.92 "Hg10 mi
9:20 AM82 °FSunny.2 mph48%29.92 "Hg10 mi
8:50 AM79 °FSunny.2 mph51%29.92 "Hg10 mi
8:20 AM75 °FPassing clouds.3 mph61%29.95 "HgN/A
7:50 AM77 °FSunny.2 mph57%29.95 "Hg10 mi
7:20 AM73 °FSunny.No wind65%29.95 "Hg10 mi
6:50 AM72 °FSunny.No wind69%29.95 "Hg10 mi
6:20 AM72 °FSunny.2 mph69%29.92 "Hg10 mi
5:50 AM68 °FClear.2 mph83%29.92 "Hg10 mi
5:20 AM70 °FClear.2 mph73%29.92 "Hg10 mi
4:50 AM68 °FClear.2 mph78%29.92 "Hg10 mi
4:20 AM68 °FPassing clouds.3 mph83%29.92 "HgN/A
3:50 AM70 °FClear.5 mph73%29.92 "Hg10 mi
3:20 AM72 °FClear.5 mph69%29.92 "Hg10 mi
2:50 AM70 °FClear.5 mph73%29.89 "Hg10 mi
2:20 AM72 °FClear.2 mph73%29.92 "Hg10 mi
1:50 AM72 °FClear.3 mph73%29.92 "Hg10 mi
1:20 AM72 °FClear.5 mph69%29.92 "Hg10 mi
12:50 AM72 °FClear.5 mph73%29.92 "Hg10 mi
12:20 AM75 °FClear.1 mph61%29.92 "Hg10 mi
11:50 PM
Sun, Jun 26
73 °FPassing clouds.No wind65%29.92 "HgN/A
11:20 PM73 °FPassing clouds.5 mph65%29.89 "HgN/A
10:50 PM73 °FPassing clouds.6 mph61%29.89 "HgN/A
10:20 PM77 °FPassing clouds.3 mph51%29.89 "HgN/A
9:50 PM79 °FPassing clouds.5 mph51%29.89 "HgN/A
9:20 PM79 °FPassing clouds.7 mph45%29.89 "HgN/A
8:50 PM77 °FScattered clouds.8 mph54%29.89 "HgN/A
8:20 PM79 °FScattered clouds.8 mph61%29.89 "HgN/A
7:50 PM79 °FScattered clouds.10 mph58%29.89 "HgN/A
7:20 PM81 °FScattered clouds.3 mph54%29.86 "HgN/A
6:50 PM81 °FScattered clouds.8 mph58%29.89 "HgN/A
6:20 PM82 °FScattered clouds.17 mph62%29.89 "HgN/A
5:50 PM90 °FScattered clouds.7 mph52%29.86 "HgN/A
5:20 PM90 °FScattered clouds.6 mph52%29.86 "HgN/A
Weather by CustomWeather, © 2016

See weather overviewHow to use our weather pages